軌道要素
Epoch 2010 Oct. 11.0 TT = JDT 2455480.5
T 2010 Oct. 19.74637 TT MPC
q 1.7651493 (2000.0) P Q
n 0.07181381 Peri. 40.84562 +0.61367183 -0.78856578
a 5.7323241 Node 11.48773 +0.66272389 +0.48715373
e 0.6920709 Incl. 11.47911 +0.42918986 +0.37529357
P 13.7
From 569 observations 2010 Aug. 10-2011 Apr. 21, mean residual 0".5.
|